Location: Chateh
(58.6667°N, 118.6000°W)
Time: 09:47:21
(UTC+00:00)

O/OREOS (USA 219) - Pass Details

Date: 10 December 2023
Orbit: 621 x 646 km, 72.0° (Epoch: 22 May)

Event Time Altitude Azimuth Distance (km) Brightness Sun altitude
Exits shadow 14:44:56 13° 328° (NNW) 1,826 ? -12.3°
Maximum altitude 14:48:57 66° 50° (NE) 693 ? -11.8°
Drops below altitude 10° 14:53:27 10° 133° (SE) 2,013 ? -11.3°
Sets 14:55:44 0° 137° (SE) 2,922 ? -11.0°
